Regional Weather Roundup
Issued by NWS

Home | Current Version | Previous Version | Graphics & Text | Print | Product List | Glossary On
Versions: 1 2 3 4 5 6 7 8 9 10 11 12 13 14 15 16 17 18 19 20 21 22 23 24 25 26 27 28 29 30 31 32 33 34 35 36 37 38 39 40 41 42 43 44 45 46 47 48 49 50
000
ASUS43 KMPX 010210
RWRMN
WEATHER ROUNDUP FOR MINNESOTA
NATIONAL WEATHER SERVICE TWIN CITIES/CHANHASSEN MN
900 PM CDT SUN AUG 31 2014


NOTE: "FAIR" INDICATES FEW OR NO CLOUDS BELOW 12,000 FEET WITH NO
SIGNIFICANT WEATHER AND/OR OBSTRUCTIONS TO VISIBILITY. N/A MEANS
CURRENT SKY AND/OR WEATHER CONDITIONS ARE NOT AVAILABLE.

MNZ060>063-068>070-010300-
   Twin Cities Metro

CITY           SKY/WX    TMP DP  RH WIND       PRES   REMARKS
TWIN CITIES    CLOUDY    76  64  66 SW13      29.66R
ST PAUL        CLOUDY    76  64  66 SW10      29.66R
CRYSTAL        CLOUDY    78  66  66 W10       29.64R
LAKEVILLE      CLOUDY    70  63  78 SW3       29.66R
EDEN PRAIRIE   CLOUDY    74  65  73 SW14G26   29.65R
SOUTH ST PAUL  CLOUDY    76  64  66 SW14G20   29.66R
LAKE ELMO      CLOUDY    77  66  69 S12       29.67R
$$
MNZ001>005-007-008-013>017-022>024-027-028-010300-
   Northwest Minnesota

CITY           SKY/WX    TMP DP  RH WIND       PRES   REMARKS
BEMIDJI        MOCLDY    64  62  91 SW5       29.61S
HALLOCK        MOCLDY    63  59  88 NW6       29.60R
ROSEAU         MOCLDY    63  57  82 NW8       29.58R
WARROAD        MOCLDY    63  57  82 W8        29.58R
THIEF RVR FALL MOCLDY    64  59  82 NW7       29.60R
CROOKSTON      MOCLDY    63  59  88 NW6       29.60S
FOSSTON        PTCLDY    57  57 100 CALM      29.61R
DETROIT LAKES  MOCLDY    64  63  94 CALM      29.62F
MOORHEAD       PTCLDY    66  64  94 NW3       29.62R
PARK RAPIDS    MOCLDY    65  63  93 CALM      29.60F
MAHNOMEN       FAIR      62  60  93 SW3       29.61R
$$
MNZ006-009>011-018-025>026-010300-
   North Central Minnesota

CITY           SKY/WX    TMP DP  RH WIND       PRES   REMARKS
BAUDETTE       MOCLDY    63  60  90 W3        29.57R
FLAG ISLAND    CLOUDY    63  59  88 W16G23    29.53R
INTL FALLS     MOCLDY    63  62  97 VRB3      29.58R
WASKISH        MOCLDY    66  64  94 SW6       29.59R
BIG FORK       MOCLDY    64  63  94 CALM      29.62R
LONGVILLE      CLOUDY    64  63  94 CALM      29.62F
GRAND RAPIDS   CLOUDY    66  63  88 CALM      29.62S
CRANE LAKE     CLOUDY    64  61  88 CALM      29.61R
ORR            CLOUDY    66  63  88 CALM      29.58R
COOK           CLOUDY    66  64  94 CALM      29.61S
WALKER         MOCLDY    64  62  93 SW3       29.61S
$$
MNZ012-019>021-037-010300-
   Northeast Minnesota

CITY           SKY/WX    TMP DP  RH WIND       PRES   REMARKS
DULUTH         MOCLDY    64  60  87 SE8       29.64R
ELY            MOCLDY    63  57  82 SE7       29.62F
HIBBING        CLOUDY    64  62  93 CALM      29.62R
EVELETH        TSTM      63  63 100 SW3       29.63S
DULUTH HARBOR  MOCLDY    63  61  94 NE9       29.63R
TWO HARBORS    MOCLDY    61  55  82 N3        29.62S
SILVER BAY     MOCLDY    59  59 100 CALM      29.63S
GRAND MARAIS     N/A     65  58  78 NE14G22   29.65F
G MARAIS ARPRT CLOUDY    61  55  82 E6        29.70F
$$
MNZ029>031-032-039>041-046>048-054>057-064-010300-
   West Central Minnesota

CITY           SKY/WX    TMP DP  RH WIND       PRES   REMARKS
FERGUS FALLS   MOCLDY    64  63  94 CALM      29.60F
WHEATON        MOCLDY    63  61  94 CALM      29.63F
MORRIS         CLOUDY    66  64  94 NW5       29.61S
ALEXANDRIA     CLOUDY    67  62  84 W6        29.65S
ELBOW LAKE     CLOUDY    66  64  93 NW3       29.61F
WADENA         CLOUDY    66  63  88 CALM      29.61F
GLENWOOD       CLOUDY    66  64  94 CALM      29.64R
APPLETON       CLOUDY    66  63  88 W6        29.61R
BENSON         CLOUDY    66  64  94 CALM      29.61R
ORTONVILLE     CLOUDY    66  63  88 NW5       29.63R
MADISON        CLOUDY    68  66  94 SW3       29.63R
WILLMAR        FAIR      70  63  78 E5        29.66R
$$
MNZ033>034-036-042>043-049>051-058-059-010300-
   Central Minnesota

CITY           SKY/WX    TMP DP  RH WIND       PRES   REMARKS
ST CLOUD       LGT RAIN  66  63  90 S3        29.64R
SAUK CENTRE    CLOUDY    68  63  83 W3        29.62F
PAYNESVILLE    RAIN      66  64  91 E6        29.66R
AITKIN         CLOUDY    66  61  82 SE3       29.62R
PINE RIVER     MOCLDY    66  63  88 CALM      29.67R
BRAINERD       CLOUDY    65  63  93 CALM      29.62F
STAPLES        CLOUDY    66  63  88 CALM      29.62F
LONG PRAIRIE   CLOUDY    68  63  83 CALM      29.63F
LITTLE FALLS   CLOUDY    64  63  94 CALM      29.62F
LITCHFIELD     LGT RAIN  68  68 100 SE7       29.68R
BUFFALO        RAIN      65  63  91 NW7       29.67F
MAPLE LAKE     RAIN      67  65  96 S5        29.68S
$$
MNZ037-044-045-052-053-010300-
   East Central Minnesota

CITY           SKY/WX    TMP DP  RH WIND       PRES   REMARKS
PRINCETON      CLOUDY    66  64  94 S8        29.65R
MORA           LGT RAIN  64  59  82 W5        29.63R
CAMBRIDGE      CLOUDY    73  59  60 S5        29.62S
RUSH CITY      LGT RAIN  74  66  77 SW5       29.61F
MOOSE LAKE     CLOUDY    70  63  78 W5        29.60R
HINCKLEY       FAIR      73  68  83 SW7       29.63R
CLOQUET        CLOUDY    64  63  94 E10       29.62S
MCGREGOR       CLOUDY    64  63  94 CALM      29.63S
$$
MNZ071>073-080-081-089-090-097-098-010300-
   Southwest Minnesota

CITY           SKY/WX    TMP DP  RH WIND       PRES   REMARKS
MONTEVIDEO     CLOUDY    66  63  88 CALM      29.63R
GRANITE FALLS  CLOUDY    69  64  84 NE3       29.66R
CANBY          CLOUDY    66  63  89 SW3       29.63R
MARSHALL       CLOUDY    70  61  73 CALM      29.63R
REDWOOD FALLS  LGT RAIN  69  68  96 N6        29.64F
OLIVIA         LGT RAIN  70  64  83 E3        29.65R
PIPESTONE      CLOUDY    66  61  82 CALM      29.66R
WINDOM         CLOUDY    66  64  94 NE6       29.64F
WORTHINGTON    CLOUDY    66  64  94 N6        29.67R
JACKSON        CLOUDY    68  63  83 SE6       29.62F
TRACY          CLOUDY    65  64  95 CALM      29.65R
SLAYTON        CLOUDY    65  64  96 CALM      29.66R
$$
MNZ065>067-074>077-082>085-091>093-010300-
   South Central Minnesota

CITY           SKY/WX    TMP DP  RH WIND       PRES   REMARKS
MANKATO        CLOUDY    66  61  82 SW13      29.70R
NEW ULM        LGT RAIN  66  66 100 N7        29.67F
ST JAMES       DRIZZLE   70  64  83 CALM      29.65F
FAIRMONT       CLOUDY    64  61  88 E13       29.61F
GLENCOE        RAIN      66  62  87 N6        29.68R
FARIBAULT      LGT RAIN  72  63  73 SW10      29.70R
OWATONNA       LGT RAIN  68  64  88 W9        29.70R
WASECA         CLOUDY    64  57  77 W15G24    29.72R
ALBERT LEA     CLOUDY    68  66  94 CALM      29.72R
$$
MNZ078>079-086>088-094>096-010300-
   Southeast Minnesota

CITY           SKY/WX    TMP DP  RH WIND       PRES   REMARKS
ROCHESTER      CLOUDY    68  64  87 S10       29.72S
RED WING       LGT RAIN  75  61  60 W9G17     29.66R
STANTON        LGT RAIN  72  63  72 W7        29.66R
DODGE CENTER   DRIZZLE   70  64  83 S12       29.69R
WINONA         CLOUDY    70  66  88 CALM      29.70F
AUSTIN         CLOUDY    68  64  88 SE3       29.71S
PRESTON        CLOUDY    69  67  95 CALM      29.73F
$$
ABBREVIATIONS USED IN REMARKS
   TC - TEMPERATURES IN CELSIUS
  WCI - WIND CHILL INDEX
   HX - HEAT INDEX
  VSB - VISIBILITY
$$


USA.gov is the U.S. government's official web portal to all federal, state and local government web resources and services.